| time (UTC) | temp F | wind direction | speed MPH | gust MPH | rain 1hr in | rain 24hr in | rain mn in | humidity % | barometer mb |
| 20260904194546 | 78 | 360 | 3.0 | 8.0 | 0.00 | 0.00 | 0.00 | 46 | 1015.4 |
| 20260904194028 | 78 | 360 | 3.0 | 6.0 | 0.00 | 0.00 | 0.00 | 46 | 1015.5 |
| 20260904193531 | 79 | 360 | 4.0 | 6.0 | 0.00 | 0.00 | 0.00 | 46 | 1015.5 |
| 20260904193047 | 79 | 360 | 3.0 | 6.0 | 0.00 | 0.00 | 0.00 | 47 | 1015.5 |
| 20260904192528 | 79 | 360 | 2.0 | 5.0 | 0.00 | 0.00 | 0.00 | 47 | 1015.4 |
| 20260904192026 | 79 | 360 | 2.0 | 6.0 | 0.00 | 0.00 | 0.00 | 47 | 1015.5 |
| 20260904191548 | 79 | 360 | 3.0 | 8.0 | 0.00 | 0.00 | 0.00 | 47 | 1015.5 |
| 20260904191028 | 79 | 360 | 4.0 | 8.0 | 0.00 | 0.00 | 0.00 | 47 | 1015.5 |
| 20260904190530 | 79 | 360 | 4.0 | 8.0 | 0.00 | 0.00 | 0.00 | 47 | 1015.5 |
| 20260904190047 | 79 | 360 | 3.0 | 8.0 | 0.00 | 0.00 | 0.00 | 47 | 1015.5 |
| 20260904185527 | 79 | 360 | 3.0 | 8.0 | 0.00 | 0.00 | 0.00 | 47 | 1015.4 |
| 20260904185027 | 79 | 360 | 4.0 | 8.0 | 0.00 | 0.00 | 0.00 | 47 | 1015.4 |
| 20260904184551 | 79 | 360 | 2.0 | 8.0 | 0.00 | 0.00 | 0.00 | 47 | 1015.4 |
| 20260904184027 | 79 | 360 | 4.0 | 8.0 | 0.00 | 0.00 | 0.00 | 47 | 1015.4 |
| 20260904183527 | 80 | 360 | 2.0 | 6.0 | 0.00 | 0.00 | 0.00 | 47 | 1015.3 |
| 20260904183053 | 80 | 360 | 3.0 | 8.0 | 0.00 | 0.00 | 0.00 | 48 | 1015.2 |
| 20260904182528 | 80 | 360 | 3.0 | 8.0 | 0.00 | 0.00 | 0.00 | 48 | 1015.1 |
| 20260904182029 | 80 | 360 | 3.0 | 10.0 | 0.00 | 0.00 | 0.00 | 48 | 1015.2 |
| 20260904181540 | 80 | 360 | 4.0 | 10.0 | 0.00 | 0.00 | 0.00 | 47 | 1015.1 |
| 20260904181027 | 80 | 360 | 4.0 | 8.0 | 0.00 | 0.00 | 0.00 | 47 | 1015.2 |
| 20260904180528 | 80 | 360 | 2.0 | 6.0 | 0.00 | 0.00 | 0.00 | 47 | 1015.1 |
| 20260904180055 | 80 | 360 | 3.0 | 6.0 | 0.00 | 0.00 | 0.00 | 47 | 1015.0 |
| 20260904175527 | 80 | 360 | 4.0 | 9.0 | 0.00 | 0.00 | 0.00 | 47 | 1015.0 |
| 20260904175027 | 80 | 360 | 3.0 | 9.0 | 0.00 | 0.00 | 0.00 | 47 | 1014.9 |
| 20260904174543 | 80 | 360 | 3.0 | 8.0 | 0.00 | 0.00 | 0.00 | 47 | 1014.7 |
| 20260904174027 | 80 | 360 | 4.0 | 10.0 | 0.00 | 0.00 | 0.00 | 47 | 1014.8 |
| 20260904173526 | 80 | 360 | 5.0 | 10.0 | 0.00 | 0.00 | 0.00 | 47 | 1014.7 |
| 20260904173047 | 81 | 360 | 5.0 | 10.0 | 0.00 | 0.00 | 0.00 | 46 | 1014.6 |
| 20260904172527 | 81 | 360 | 3.0 | 11.0 | 0.00 | 0.00 | 0.00 | 46 | 1014.5 |
| 20260904172028 | 81 | 360 | 4.0 | 13.0 | 0.00 | 0.00 | 0.00 | 46 | 1014.4 |
| 20260904171546 | 81 | 360 | 7.0 | 13.0 | 0.00 | 0.00 | 0.00 | 46 | 1014.4 |
| 20260904171027 | 81 | 360 | 5.0 | 13.0 | 0.00 | 0.00 | 0.00 | 46 | 1014.3 |
| 20260904170527 | 81 | 360 | 6.0 | 14.0 | 0.00 | 0.00 | 0.00 | 46 | 1014.2 |
| 20260904170048 | 82 | 360 | 7.0 | 14.0 | 0.00 | 0.00 | 0.00 | 46 | 1014.1 |
| 20260904165527 | 82 | 360 | 4.0 | 15.0 | 0.00 | 0.00 | 0.00 | 46 | 1014.0 |
| 20260904165027 | 82 | 360 | 9.0 | 17.0 | 0.00 | 0.00 | 0.00 | 46 | 1014.0 |
| 20260904164549 | 82 | 350 | 11.0 | 17.0 | 0.00 | 0.00 | 0.00 | 46 | 1013.9 |
| 20260904164026 | 82 | 360 | 10.0 | 17.0 | 0.00 | 0.00 | 0.00 | 45 | 1013.9 |
| 20260904163527 | 83 | 349 | 8.0 | 19.0 | 0.00 | 0.00 | 0.00 | 45 | 1013.8 |
| 20260904163045 | 83 | 350 | 11.0 | 19.0 | 0.00 | 0.00 | 0.00 | 45 | 1013.8 |
| 20260904162528 | 83 | 340 | 12.0 | 20.0 | 0.00 | 0.00 | 0.00 | 45 | 1013.8 |
| 20260904162023 | 83 | 325 | 13.0 | 20.0 | 0.00 | 0.00 | 0.00 | 45 | 1013.7 |
| 20260904161546 | 83 | 331 | 10.0 | 19.0 | 0.00 | 0.00 | 0.00 | 44 | 1013.7 |
| 20260904161026 | 83 | 313 | 11.0 | 19.0 | 0.00 | 0.00 | 0.00 | 44 | 1013.6 |
| 20260904160531 | 84 | 36 | 12.0 | 19.0 | 0.00 | 0.00 | 0.00 | 44 | 1013.6 |
| 20260904160043 | 84 | 355 | 9.0 | 16.0 | 0.00 | 0.00 | 0.00 | 44 | 1013.7 |
| 20260904155528 | 84 | 37 | 6.0 | 16.0 | 0.00 | 0.00 | 0.00 | 44 | 1013.7 |
| 20260904155027 | 84 | 46 | 7.0 | 16.0 | 0.00 | 0.00 | 0.00 | 43 | 1013.7 |
| 20260904154550 | 84 | 336 | 9.0 | 18.0 | 0.00 | 0.00 | 0.00 | 43 | 1013.6 |
| 20260904154027 | 84 | 34 | 11.0 | 18.0 | 0.00 | 0.00 | 0.00 | 43 | 1013.7 |
| 20260904153530 | 84 | 15 | 9.0 | 16.0 | 0.00 | 0.00 | 0.00 | 43 | 1013.6 |
| 20260904153051 | 84 | 44 | 9.0 | 15.0 | 0.00 | 0.00 | 0.00 | 43 | 1013.6 |
| 20260904152526 | 84 | 41 | 9.0 | 14.0 | 0.00 | 0.00 | 0.00 | 42 | 1013.5 |
| 20260904152027 | 85 | 55 | 5.0 | 14.0 | 0.00 | 0.00 | 0.00 | 42 | 1013.5 |
| 20260904151542 | 85 | 9 | 7.0 | 14.0 | 0.00 | 0.00 | 0.00 | 42 | 1013.5 |
| 20260904151028 | 85 | 355 | 6.0 | 15.0 | 0.00 | 0.00 | 0.00 | 42 | 1013.5 |
| 20260904150527 | 85 | 33 | 8.0 | 19.0 | 0.00 | 0.00 | 0.00 | 42 | 1013.5 |
| 20260904150046 | 85 | 347 | 4.0 | 19.0 | 0.00 | 0.00 | 0.00 | 42 | 1013.6 |
| 20260904145527 | 85 | 5 | 12.0 | 19.0 | 0.00 | 0.00 | 0.00 | 41 | 1013.6 |
| 20260904145026 | 85 | 19 | 8.0 | 17.0 | 0.00 | 0.00 | 0.00 | 42 | 1013.6 |
| 20260904144558 | 85 | 338 | 10.0 | 18.0 | 0.00 | 0.00 | 0.00 | 41 | 1013.6 |
| 20260904144027 | 85 | 360 | 8.0 | 18.0 | 0.00 | 0.00 | 0.00 | 42 | 1013.6 |
| 20260904143526 | 85 | 31 | 10.0 | 17.0 | 0.00 | 0.00 | 0.00 | 42 | 1013.6 |
| 20260904143040 | 85 | 12 | 10.0 | 18.0 | 0.00 | 0.00 | 0.00 | 42 | 1013.5 |
| 20260904142528 | 85 | 5 | 8.0 | 18.0 | 0.00 | 0.00 | 0.00 | 42 | 1013.4 |
| 20260904142028 | 86 | 21 | 8.0 | 18.0 | 0.00 | 0.00 | 0.00 | 42 | 1013.4 |
| 20260904141542 | 86 | 326 | 11.0 | 18.0 | 0.00 | 0.00 | 0.00 | 41 | 1013.4 |
| 20260904141027 | 86 | 360 | 9.0 | 20.0 | 0.00 | 0.00 | 0.00 | 41 | 1013.4 |
| 20260904140527 | 86 | 15 | 8.0 | 20.0 | 0.00 | 0.00 | 0.00 | 42 | 1013.4 |
| 20260904140055 | 86 | 355 | 6.0 | 22.0 | 0.00 | 0.00 | 0.00 | 42 | 1013.5 |
| 20260904135527 | 85 | 5 | 12.0 | 22.0 | 0.00 | 0.00 | 0.00 | 42 | 1013.4 |
| 20260904135027 | 85 | 60 | 11.0 | 18.0 | 0.00 | 0.00 | 0.00 | 42 | 1013.4 |
| 20260904134549 | 86 | 30 | 9.0 | 18.0 | 0.00 | 0.00 | 0.00 | 41 | 1013.4 |
| 20260904134026 | 85 | 22 | 10.0 | 18.0 | 0.00 | 0.00 | 0.00 | 42 | 1013.5 |
| 20260904133526 | 86 | 38 | 11.0 | 18.0 | 0.00 | 0.00 | 0.00 | 42 | 1013.5 |
| 20260904133046 | 86 | 40 | 5.0 | 18.0 | 0.00 | 0.00 | 0.00 | 41 | 1013.5 |
| 20260904132527 | 85 | 19 | 11.0 | 18.0 | 0.00 | 0.00 | 0.00 | 42 | 1013.4 |
| 20260904132031 | 86 | 360 | 10.0 | 18.0 | 0.00 | 0.00 | 0.00 | 41 | 1013.5 |
| 20260904131540 | 86 | 355 | 9.0 | 18.0 | 0.00 | 0.00 | 0.00 | 41 | 1013.4 |
| 20260904131027 | 86 | 338 | 8.0 | 18.0 | 0.00 | 0.00 | 0.00 | 41 | 1013.6 |
| 20260904130527 | 86 | 52 | 10.0 | 18.0 | 0.00 | 0.00 | 0.00 | 42 | 1013.6 |
| 20260904130049 | 86 | 21 | 10.0 | 20.0 | 0.00 | 0.00 | 0.00 | 42 | 1013.6 |
| 20260904125527 | 86 | 336 | 10.0 | 24.0 | 0.00 | 0.00 | 0.00 | 42 | 1013.6 |
| 20260904125027 | 86 | 14 | 13.0 | 24.0 | 0.00 | 0.00 | 0.00 | 41 | 1013.5 |
| 20260904124540 | 86 | 352 | 14.0 | 20.0 | 0.00 | 0.00 | 0.00 | 41 | 1013.5 |
| 20260904124027 | 86 | 5 | 9.0 | 21.0 | 0.00 | 0.00 | 0.00 | 42 | 1013.5 |
| 20260904123529 | 86 | 355 | 10.0 | 22.0 | 0.00 | 0.00 | 0.00 | 42 | 1013.7 |
| 20260904123043 | 86 | 5 | 14.0 | 22.0 | 0.00 | 0.00 | 0.00 | 41 | 1013.7 |
| 20260904122528 | 86 | 69 | 14.0 | 22.0 | 0.00 | 0.00 | 0.00 | 42 | 1013.8 |
| 20260904122026 | 86 | 320 | 10.0 | 20.0 | 0.00 | 0.00 | 0.00 | 42 | 1013.8 |
| 20260904121542 | 86 | 15 | 10.0 | 19.0 | 0.00 | 0.00 | 0.00 | 41 | 1013.8 |
| 20260904121026 | 86 | 53 | 8.0 | 23.0 | 0.00 | 0.00 | 0.00 | 41 | 1013.7 |
| 20260904120527 | 86 | 346 | 12.0 | 23.0 | 0.00 | 0.00 | 0.00 | 40 | 1013.8 |
| 20260904120053 | 86 | 343 | 11.0 | 23.0 | 0.00 | 0.00 | 0.00 | 40 | 1013.8 |
| 20260904115527 | 86 | 355 | 12.0 | 23.0 | 0.00 | 0.00 | 0.00 | 41 | 1013.9 |
| 20260904115029 | 86 | 9 | 13.0 | 22.0 | 0.00 | 0.00 | 0.00 | 40 | 1013.9 |
| 20260904114545 | 86 | 342 | 12.0 | 22.0 | 0.00 | 0.00 | 0.00 | 39 | 1013.9 |
| 20260904114029 | 86 | 300 | 9.0 | 21.0 | 0.00 | 0.00 | 0.00 | 39 | 1014.0 |
| 20260904113531 | 86 | 360 | 10.0 | 21.0 | 0.00 | 0.00 | 0.00 | 40 | 1013.9 |
| 20260904113047 | 86 | 317 | 12.0 | 21.0 | 0.00 | 0.00 | 0.00 | 41 | 1013.8 |
| 20260904112526 | 85 | 5 | 9.0 | 21.0 | 0.00 | 0.00 | 0.00 | 42 | 1013.9 |
| 20260904112027 | 86 | 348 | 11.0 | 18.0 | 0.00 | 0.00 | 0.00 | 41 | 1014.1 |
| 20260904111542 | 86 | 331 | 8.0 | 19.0 | 0.00 | 0.00 | 0.00 | 42 | 1014.0 |
| 20260904111026 | 85 | 321 | 10.0 | 22.0 | 0.00 | 0.00 | 0.00 | 42 | 1014.0 |
| 20260904110526 | 85 | 337 | 12.0 | 22.0 | 0.00 | 0.00 | 0.00 | 42 | 1014.1 |
| 20260904110047 | 85 | 355 | 14.0 | 20.0 | 0.00 | 0.00 | 0.00 | 42 | 1013.9 |
| 20260904105530 | 85 | 336 | 9.0 | 20.0 | 0.00 | 0.00 | 0.00 | 42 | 1014.0 |
| 20260904105027 | 85 | 329 | 8.0 | 20.0 | 0.00 | 0.00 | 0.00 | 43 | 1014.0 |
| 20260904104545 | 85 | 306 | 10.0 | 20.0 | 0.00 | 0.00 | 0.00 | 42 | 1014.0 |
| 20260904104029 | 85 | 348 | 13.0 | 20.0 | 0.00 | 0.00 | 0.00 | 43 | 1013.9 |
| 20260904103526 | 85 | 10 | 9.0 | 21.0 | 0.00 | 0.00 | 0.00 | 44 | 1014.0 |
| 20260904103042 | 85 | 360 | 13.0 | 23.0 | 0.00 | 0.00 | 0.00 | 46 | 1013.9 |
| 20260904102526 | 85 | 332 | 14.0 | 23.0 | 0.00 | 0.00 | 0.00 | 46 | 1013.9 |
| 20260904102027 | 85 | 337 | 8.0 | 22.0 | 0.00 | 0.00 | 0.00 | 45 | 1013.9 |
| 20260904101558 | 85 | 347 | 10.0 | 22.0 | 0.00 | 0.00 | 0.00 | 45 | 1014.1 |
| 20260904101026 | 85 | 334 | 12.0 | 23.0 | 0.00 | 0.00 | 0.00 | 45 | 1014.2 |
| 20260904100527 | 85 | 333 | 13.0 | 23.0 | 0.00 | 0.00 | 0.00 | 46 | 1014.1 |
| 20260904100042 | 85 | 334 | 12.0 | 23.0 | 0.00 | 0.00 | 0.00 | 46 | 1014.1 |
| 20260904095527 | 85 | 326 | 14.0 | 23.0 | 0.00 | 0.00 | 0.00 | 46 | 1014.1 |
| 20260904095026 | 85 | 360 | 11.0 | 22.0 | 0.00 | 0.00 | 0.00 | 46 | 1014.1 |
| 20260904094547 | 85 | 12 | 11.0 | 22.0 | 0.00 | 0.00 | 0.00 | 44 | 1014.1 |
| 20260904094026 | 85 | 360 | 11.0 | 19.0 | 0.00 | 0.00 | 0.00 | 45 | 1014.1 |
| 20260904093526 | 85 | 355 | 8.0 | 21.0 | 0.00 | 0.00 | 0.00 | 44 | 1013.9 |
| 20260904093046 | 85 | 51 | 11.0 | 24.0 | 0.00 | 0.00 | 0.00 | 44 | 1014.1 |
| 20260904092526 | 85 | 360 | 13.0 | 24.0 | 0.00 | 0.00 | 0.00 | 45 | 1014.1 |
| 20260904092026 | 85 | 360 | 10.0 | 22.0 | 0.00 | 0.00 | 0.00 | 46 | 1014.1 |
| 20260904091547 | 85 | 360 | 11.0 | 22.0 | 0.00 | 0.00 | 0.00 | 47 | 1014.0 |
| 20260904091027 | 85 | 5 | 11.0 | 22.0 | 0.00 | 0.00 | 0.00 | 47 | 1014.2 |
| 20260904090523 | 85 | 350 | 8.0 | 21.0 | 0.00 | 0.00 | 0.00 | 49 | 1014.1 |
| 20260904090046 | 84 | 19 | 10.0 | 21.0 | 0.00 | 0.00 | 0.00 | 50 | 1014.2 |
| 20260904085526 | 84 | 10 | 10.0 | 18.0 | 0.00 | 0.00 | 0.00 | 51 | 1014.2 |
| 20260904085026 | 83 | 30 | 13.0 | 22.0 | 0.00 | 0.00 | 0.00 | 51 | 1014.1 |
| 20260904084540 | 84 | 329 | 12.0 | 22.0 | 0.00 | 0.00 | 0.00 | 51 | 1014.1 |
| 20260904084026 | 84 | 341 | 12.0 | 20.0 | 0.00 | 0.00 | 0.00 | 52 | 1014.2 |
| 20260904083526 | 84 | 360 | 11.0 | 20.0 | 0.00 | 0.00 | 0.00 | 52 | 1014.2 |
| 20260904083047 | 84 | 15 | 11.0 | 20.0 | 0.00 | 0.00 | 0.00 | 52 | 1014.3 |
| 20260904082527 | 83 | 327 | 14.0 | 20.0 | 0.00 | 0.00 | 0.00 | 52 | 1014.1 |
| 20260904082026 | 83 | 321 | 10.0 | 18.0 | 0.00 | 0.00 | 0.00 | 54 | 1014.2 |
| 20260904081540 | 83 | 30 | 8.0 | 20.0 | 0.00 | 0.00 | 0.00 | 54 | 1014.2 |
| 20260904081026 | 83 | 33 | 12.0 | 20.0 | 0.00 | 0.00 | 0.00 | 54 | 1014.1 |
| 20260904080526 | 83 | 311 | 10.0 | 16.0 | 0.00 | 0.00 | 0.00 | 54 | 1014.1 |
| 20260904080045 | 83 | 329 | 7.0 | 18.0 | 0.00 | 0.00 | 0.00 | 54 | 1014.1 |
| 20260904075526 | 82 | 24 | 9.0 | 18.0 | 0.00 | 0.00 | 0.00 | 55 | 1014.1 |
| 20260904075025 | 82 | 24 | 11.0 | 18.0 | 0.00 | 0.00 | 0.00 | 55 | 1014.1 |
| 20260904074554 | 82 | 46 | 7.0 | 18.0 | 0.00 | 0.00 | 0.00 | 56 | 1014.0 |
| 20260904074026 | 81 | 350 | 9.0 | 18.0 | 0.00 | 0.00 | 0.00 | 56 | 1014.0 |
| 20260904073529 | 82 | 19 | 11.0 | 18.0 | 0.00 | 0.00 | 0.00 | 56 | 1013.9 |
| 20260904073057 | 81 | 34 | 8.0 | 16.0 | 0.00 | 0.00 | 0.00 | 56 | 1013.9 |
| 20260904072527 | 81 | 330 | 10.0 | 16.0 | 0.00 | 0.00 | 0.00 | 55 | 1013.9 |
| 20260904072026 | 81 | 360 | 8.0 | 17.0 | 0.00 | 0.00 | 0.00 | 55 | 1013.9 |
| 20260904071546 | 81 | 355 | 10.0 | 17.0 | 0.00 | 0.00 | 0.00 | 55 | 1013.8 |
| 20260904071028 | 81 | 344 | 10.0 | 18.0 | 0.00 | 0.00 | 0.00 | 55 | 1013.9 |
| 20260904070528 | 81 | 30 | 11.0 | 18.0 | 0.00 | 0.00 | 0.00 | 55 | 1013.7 |
| 20260904070045 | 81 | 355 | 12.0 | 22.0 | 0.00 | 0.00 | 0.00 | 56 | 1013.6 |
| 20260904065527 | 81 | 316 | 11.0 | 22.0 | 0.00 | 0.00 | 0.00 | 56 | 1013.7 |
| 20260904065026 | 80 | 311 | 14.0 | 22.0 | 0.00 | 0.00 | 0.00 | 55 | 1013.6 |
| 20260904064556 | 81 | 303 | 9.0 | 17.0 | 0.00 | 0.00 | 0.00 | 56 | 1013.5 |
| 20260904064026 | 80 | 338 | 10.0 | 17.0 | 0.00 | 0.00 | 0.00 | 56 | 1013.5 |
| 20260904063527 | 80 | 329 | 6.0 | 15.0 | 0.00 | 0.00 | 0.00 | 57 | 1013.5 |
| 20260904063101 | 80 | 342 | 9.0 | 15.0 | 0.00 | 0.00 | 0.00 | 57 | 1013.4 |
| 20260904062526 | 80 | 360 | 8.0 | 16.0 | 0.00 | 0.00 | 0.00 | 58 | 1013.4 |
| 20260904062026 | 79 | 329 | 8.0 | 16.0 | 0.00 | 0.00 | 0.00 | 58 | 1013.3 |
| 20260904061540 | 79 | 306 | 7.0 | 13.0 | 0.00 | 0.00 | 0.00 | 58 | 1013.4 |
| 20260904061028 | 79 | 299 | 5.0 | 13.0 | 0.00 | 0.00 | 0.00 | 59 | 1013.3 |
| 20260904060527 | 79 | 305 | 7.0 | 13.0 | 0.00 | 0.00 | 0.00 | 58 | 1013.4 |
| 20260904060100 | 79 | 266 | 2.0 | 6.0 | 0.00 | 0.00 | 0.00 | 58 | 1013.5 |
| 20260904055526 | 79 | 319 | 2.0 | 5.0 | 0.00 | 0.00 | 0.00 | 58 | 1013.5 |
| 20260904055026 | 79 | 62 | 0.0 | 9.0 | 0.00 | 0.00 | 0.00 | 58 | 1013.6 |
| 20260904054554 | 78 | 0 | 3.0 | 13.0 | 0.00 | 0.00 | 0.00 | 59 | 1013.5 |
| 20260904054026 | 78 | 41 | 2.0 | 13.0 | 0.00 | 0.00 | 0.00 | 59 | 1013.5 |
| 20260904053526 | 78 | 121 | 4.0 | 10.0 | 0.00 | 0.00 | 0.00 | 59 | 1013.4 |
| 20260904053045 | 78 | 125 | 5.0 | 16.0 | 0.00 | 0.00 | 0.00 | 59 | 1013.3 |
| 20260904052529 | 78 | 138 | 7.0 | 16.0 | 0.00 | 0.00 | 0.00 | 59 | 1013.4 |
| 20260904052027 | 78 | 134 | 7.0 | 16.0 | 0.00 | 0.00 | 0.00 | 59 | 1013.3 |
| 20260904051544 | 78 | 76 | 6.0 | 12.0 | 0.00 | 0.00 | 0.00 | 59 | 1013.3 |
| 20260904051030 | 78 | 360 | 7.0 | 12.0 | 0.00 | 0.00 | 0.00 | 59 | 1013.3 |
| 20260904050526 | 77 | 360 | 3.0 | 10.0 | 0.00 | 0.00 | 0.00 | 59 | 1013.3 |
| 20260904050049 | 77 | 360 | 2.0 | 8.0 | 0.00 | 0.00 | 0.00 | 59 | 1013.3 |
| 20260904045528 | 77 | 360 | 3.0 | 7.0 | 0.00 | 0.00 | 0.00 | 60 | 1013.4 |
| 20260904045028 | 76 | 46 | 3.0 | 8.0 | 0.00 | 0.00 | 0.00 | 61 | 1013.4 |
| 20260904044548 | 76 | 17 | 2.0 | 10.0 | 0.00 | 0.00 | 0.00 | 62 | 1013.3 |
| 20260904044028 | 76 | 333 | 4.0 | 10.0 | 0.00 | 0.00 | 0.00 | 62 | 1013.3 |
| 20260904043526 | 76 | 55 | 4.0 | 10.0 | 0.00 | 0.00 | 0.00 | 63 | 1013.3 |
| 20260904043046 | 76 | 338 | 3.0 | 8.0 | 0.00 | 0.00 | 0.00 | 63 | 1013.3 |
| 20260904042524 | 76 | 360 | 4.0 | 9.0 | 0.00 | 0.00 | 0.00 | 63 | 1013.3 |
| 20260904042024 | 75 | 5 | 4.0 | 9.0 | 0.00 | 0.00 | 0.00 | 63 | 1013.3 |
| 20260904041543 | 75 | 345 | 4.0 | 10.0 | 0.00 | 0.00 | 0.00 | 63 | 1013.2 |
| 20260904041027 | 76 | 9 | 5.0 | 11.0 | 0.00 | 0.00 | 0.00 | 63 | 1013.1 |
| 20260904040524 | 76 | 317 | 6.0 | 18.0 | 0.00 | 0.00 | 0.00 | 62 | 1013.1 |
| 20260904040047 | 76 | 343 | 6.0 | 18.0 | 0.00 | 0.00 | 0.00 | 62 | 1013.0 |
| 20260904035526 | 76 | 323 | 8.0 | 15.0 | 0.00 | 0.00 | 0.00 | 62 | 1013.0 |
| 20260904035030 | 76 | 28 | 8.0 | 15.0 | 0.00 | 0.00 | 0.00 | 61 | 1013.0 |
| 20260904034551 | 76 | 344 | 4.0 | 8.0 | 0.00 | 0.00 | 0.00 | 60 | 1013.0 |
| 20260904034024 | 76 | 348 | 4.0 | 8.0 | 0.00 | 0.00 | 0.00 | 59 | 1012.9 |
| 20260904033525 | 76 | 5 | 2.0 | 9.0 | 0.00 | 0.00 | 0.00 | 58 | 1012.9 |
| 20260904033048 | 76 | 5 | 4.0 | 11.0 | 0.00 | 0.00 | 0.00 | 58 | 1013.0 |
| 20260904032525 | 76 | 312 | 4.0 | 11.0 | 0.00 | 0.00 | 0.00 | 58 | 1013.0 |
| 20260904032025 | 76 | 355 | 4.0 | 9.0 | 0.00 | 0.00 | 0.00 | 57 | 1012.9 |
| 20260904031545 | 76 | 18 | 3.0 | 8.0 | 0.00 | 0.00 | 0.00 | 56 | 1012.9 |
| 20260904031024 | 76 | 0 | 1.0 | 5.0 | 0.00 | 0.00 | 0.00 | 56 | 1012.9 |
| 20260904030524 | 76 | 32 | 2.0 | 5.0 | 0.00 | 0.00 | 0.00 | 56 | 1012.9 |
| 20260904030043 | 76 | 57 | 1.0 | 7.0 | 0.00 | 0.00 | 0.00 | 55 | 1012.9 |
| 20260904025524 | 76 | 60 | 2.0 | 7.0 | 0.00 | 0.00 | 0.00 | 55 | 1012.8 |
| 20260904025027 | 76 | 350 | 2.0 | 9.0 | 0.00 | 0.00 | 0.00 | 55 | 1012.7 |
| 20260904024543 | 76 | 355 | 2.0 | 9.0 | 0.00 | 0.00 | 0.00 | 55 | 1012.8 |
| 20260904024024 | 76 | 13 | 2.0 | 7.0 | 0.00 | 0.00 | 0.00 | 56 | 1012.8 |
| 20260904023525 | 76 | 27 | 2.0 | 10.0 | 0.00 | 0.00 | 0.00 | 56 | 1012.9 |
| 20260904023050 | 76 | 27 | 3.0 | 11.0 | 0.00 | 0.00 | 0.00 | 56 | 1012.8 |
| 20260904022526 | 76 | 15 | 4.0 | 11.0 | 0.00 | 0.00 | 0.00 | 56 | 1012.9 |
| 20260904022025 | 76 | 360 | 4.0 | 9.0 | 0.00 | 0.00 | 0.00 | 56 | 1012.8 |
| 20260904021553 | 76 | 360 | 4.0 | 9.0 | 0.00 | 0.00 | 0.00 | 56 | 1012.8 |
| 20260904021025 | 76 | 26 | 3.0 | 9.0 | 0.00 | 0.00 | 0.00 | 56 | 1012.8 |
| 20260904020524 | 76 | 31 | 3.0 | 8.0 | 0.00 | 0.00 | 0.00 | 56 | 1012.9 |
| 20260904020045 | 76 | 344 | 4.0 | 8.0 | 0.00 | 0.00 | 0.00 | 56 | 1012.9 |
| 20260904015525 | 77 | 333 | 3.0 | 10.0 | 0.00 | 0.00 | 0.00 | 55 | 1013.0 |
| 20260904015028 | 77 | 19 | 3.0 | 13.0 | 0.00 | 0.00 | 0.00 | 54 | 1012.8 |
| 20260904014551 | 77 | 348 | 6.0 | 14.0 | 0.00 | 0.00 | 0.00 | 53 | 1012.9 |
| 20260904014024 | 77 | 18 | 7.0 | 14.0 | 0.00 | 0.00 | 0.00 | 53 | 1012.8 |
| 20260904013528 | 77 | 331 | 4.0 | 14.0 | 0.00 | 0.00 | 0.00 | 52 | 1012.9 |
| 20260904013110 | 77 | 338 | 1.0 | 6.0 | 0.00 | 0.00 | 0.00 | 51 | 1013.0 |
| 20260904012524 | 78 | 234 | 0.0 | 13.0 | 0.00 | 0.00 | 0.00 | 51 | 1012.9 |
| 20260904012024 | 78 | 334 | 2.0 | 13.0 | 0.00 | 0.00 | 0.00 | 50 | 1013.0 |
| 20260904011545 | 78 | 108 | 7.0 | 14.0 | 0.00 | 0.00 | 0.00 | 50 | 1012.9 |
| 20260904011028 | 78 | 36 | 4.0 | 14.0 | 0.00 | 0.00 | 0.00 | 50 | 1013.0 |
| 20260904010525 | 78 | 5 | 6.0 | 14.0 | 0.00 | 0.00 | 0.00 | 49 | 1012.9 |
| 20260904010041 | 78 | 13 | 6.0 | 11.0 | 0.00 | 0.00 | 0.00 | 49 | 1012.8 |
| 20260904005526 | 78 | 41 | 6.0 | 11.0 | 0.00 | 0.00 | 0.00 | 49 | 1012.8 |
| 20260904005026 | 78 | 9 | 5.0 | 11.0 | 0.00 | 0.00 | 0.00 | 49 | 1012.8 |
| 20260904004547 | 78 | 26 | 5.0 | 10.0 | 0.00 | 0.00 | 0.00 | 50 | 1012.8 |
| 20260904004026 | 78 | 355 | 4.0 | 10.0 | 0.00 | 0.00 | 0.00 | 50 | 1012.8 |
| 20260904003526 | 78 | 360 | 4.0 | 11.0 | 0.00 | 0.00 | 0.00 | 51 | 1012.7 |
| 20260904003041 | 78 | 5 | 5.0 | 11.0 | 0.00 | 0.00 | 0.00 | 50 | 1012.7 |
| 20260904002526 | 78 | 14 | 4.0 | 8.0 | 0.00 | 0.00 | 0.00 | 51 | 1012.7 |
| 20260904002026 | 78 | 360 | 4.0 | 10.0 | 0.00 | 0.00 | 0.00 | 51 | 1012.8 |
| 20260904001556 | 78 | 13 | 4.0 | 11.0 | 0.00 | 0.00 | 0.00 | 50 | 1012.8 |
| 20260904001028 | 78 | 22 | 6.0 | 11.0 | 0.00 | 0.00 | 0.00 | 49 | 1012.8 |
| 20260904000526 | 78 | 22 | 5.0 | 10.0 | 0.00 | 0.00 | 0.00 | 49 | 1012.8 |
| 20260903235524 | 78 | 15 | 6.0 | 11.0 | 0.00 | 0.00 | 0.00 | 48 | 1012.8 |
| 20260903235026 | 78 | 26 | 5.0 | 9.0 | 0.00 | 0.00 | 0.00 | 48 | 1012.9 |
| 20260903234547 | 78 | 29 | 3.0 | 9.0 | 0.00 | 0.00 | 0.00 | 48 | 1012.9 |
| 20260903234027 | 78 | 26 | 3.0 | 9.0 | 0.00 | 0.00 | 0.00 | 48 | 1012.8 |
| 20260903233528 | 78 | 15 | 3.0 | 8.0 | 0.00 | 0.00 | 0.00 | 48 | 1012.8 |
| 20260903233046 | 78 | 15 | 3.0 | 9.0 | 0.00 | 0.00 | 0.00 | 48 | 1012.7 |
| 20260903232525 | 78 | 37 | 4.0 | 9.0 | 0.00 | 0.00 | 0.00 | 47 | 1012.8 |
| 20260903232025 | 78 | 5 | 4.0 | 13.0 | 0.00 | 0.00 | 0.00 | 47 | 1012.8 |
| 20260903231542 | 79 | 352 | 6.0 | 13.0 | 0.00 | 0.00 | 0.00 | 46 | 1012.9 |
| 20260903231025 | 79 | 339 | 4.0 | 8.0 | 0.00 | 0.00 | 0.00 | 46 | 1012.9 |
| 20260903230528 | 79 | 25 | 2.0 | 5.0 | 0.00 | 0.00 | 0.00 | 45 | 1012.9 |
| 20260903230042 | 79 | 26 | 2.0 | 6.0 | 0.00 | 0.00 | 0.00 | 44 | 1013.0 |
| 20260903225525 | 79 | 355 | 3.0 | 7.0 | 0.00 | 0.00 | 0.00 | 44 | 1012.9 |
| 20260903225026 | 79 | 13 | 3.0 | 9.0 | 0.00 | 0.00 | 0.00 | 44 | 1013.0 |
| 20260903224549 | 79 | 25 | 2.0 | 9.0 | 0.00 | 0.00 | 0.00 | 44 | 1012.9 |
| 20260903224023 | 79 | 360 | 4.0 | 9.0 | 0.00 | 0.00 | 0.00 | 43 | 1012.9 |
| 20260903223523 | 79 | 12 | 2.0 | 7.0 | 0.00 | 0.00 | 0.00 | 43 | 1012.9 |
| 20260903223043 | 79 | 351 | 3.0 | 7.0 | 0.00 | 0.00 | 0.00 | 43 | 1012.9 |
| 20260903222526 | 79 | 9 | 2.0 | 9.0 | 0.00 | 0.00 | 0.00 | 42 | 1013.0 |
| 20260903222032 | 79 | 342 | 4.0 | 9.0 | 0.00 | 0.00 | 0.00 | 42 | 1013.0 |
| 20260903221544 | 80 | 360 | 5.0 | 10.0 | 0.00 | 0.00 | 0.00 | 41 | 1013.0 |
| 20260903221025 | 80 | 340 | 5.0 | 10.0 | 0.00 | 0.00 | 0.00 | 41 | 1013.1 |
| 20260903220528 | 80 | 335 | 4.0 | 10.0 | 0.00 | 0.00 | 0.00 | 41 | 1013.0 |
| 20260903220047 | 80 | 17 | 4.0 | 10.0 | 0.00 | 0.00 | 0.00 | 41 | 1012.9 |
| 20260903215524 | 80 | 19 | 2.0 | 9.0 | 0.00 | 0.00 | 0.00 | 41 | 1012.9 |
| 20260903215026 | 80 | 36 | 3.0 | 9.0 | 0.00 | 0.00 | 0.00 | 41 | 1012.9 |
| 20260903214540 | 80 | 355 | 3.0 | 9.0 | 0.00 | 0.00 | 0.00 | 41 | 1012.9 |
| 20260903214024 | 80 | 36 | 2.0 | 5.0 | 0.00 | 0.00 | 0.00 | 41 | 1012.8 |
| 20260903213527 | 80 | 83 | 0.0 | 4.0 | 0.00 | 0.00 | 0.00 | 41 | 1012.8 |
| 20260903213049 | 80 | 83 | 1.0 | 4.0 | 0.00 | 0.00 | 0.00 | 41 | 1012.9 |
| 20260903212529 | 80 | 0 | 0.0 | 0.0 | 0.00 | 0.00 | 0.00 | 41 | 1012.8 |
| 20260903212025 | 80 | 0 | 0.0 | 1.0 | 0.00 | 0.00 | 0.00 | 41 | 1012.9 |
| 20260903211549 | 80 | 0 | 0.0 | 2.0 | 0.00 | 0.00 | 0.00 | 40 | 1012.9 |
| 20260903211025 | 80 | 0 | 0.0 | 4.0 | 0.00 | 0.00 | 0.00 | 40 | 1012.8 |
| 20260903210525 | 80 | 0 | 0.0 | 4.0 | 0.00 | 0.00 | 0.00 | 40 | 1012.8 |
| 20260903210047 | 80 | 5 | 1.0 | 5.0 | 0.00 | 0.00 | 0.00 | 40 | 1012.9 |
| 20260903205528 | 80 | 14 | 1.0 | 5.0 | 0.00 | 0.00 | 0.00 | 39 | 1012.8 |
| 20260903205027 | 80 | 13 | 2.0 | 5.0 | 0.00 | 0.00 | 0.00 | 39 | 1012.8 |
| 20260903204544 | 80 | 360 | 1.0 | 5.0 | 0.00 | 0.00 | 0.00 | 39 | 1012.7 |
| 20260903204026 | 80 | 56 | 1.0 | 5.0 | 0.00 | 0.00 | 0.00 | 39 | 1012.8 |
| 20260903203525 | 80 | 55 | 3.0 | 5.0 | 0.00 | 0.00 | 0.00 | 39 | 1012.9 |
| 20260903203052 | 80 | 0 | 0.0 | 2.0 | 0.00 | 0.00 | 0.00 | 39 | 1012.9 |
| 20260903202525 | 81 | 0 | 0.0 | 4.0 | 0.00 | 0.00 | 0.00 | 38 | 1012.9 |
| 20260903202027 | 81 | 0 | 1.0 | 4.0 | 0.00 | 0.00 | 0.00 | 38 | 1012.9 |
| 20260903201543 | 81 | 251 | 0.0 | 8.0 | 0.00 | 0.00 | 0.00 | 38 | 1012.9 |
| 20260903201026 | 81 | 0 | 2.0 | 8.0 | 0.00 | 0.00 | 0.00 | 38 | 1012.9 |
| 20260903200525 | 81 | 302 | 3.0 | 8.0 | 0.00 | 0.00 | 0.00 | 38 | 1012.9 |
| 20260903200047 | 81 | 355 | 2.0 | 7.0 | 0.00 | 0.00 | 0.00 | 38 | 1012.9 |
| 20260903195524 | 81 | 338 | 2.0 | 7.0 | 0.00 | 0.00 | 0.00 | 38 | 1012.9 |
| 20260903195025 | 81 | 39 | 2.0 | 9.0 | 0.00 | 0.00 | 0.00 | 38 | 1012.9 |